User: anonymous   Login
Location: DARK SKY Beskydy - Park tmavé oblohy, www.darkskybeskydy.cz
(49.4926°N, 18.5016°E)
Time: 14:40:35
(UTC+02:00)
Language:

Transit 2A Rocket - Orbit

View from above orbital plane
View from above orbital plane
View from above satellite
View from above satellite

Ground track
Ground track

The orbit data is extracted from the following two-line orbital elements,

1    47U 60007C   24206.18505731  .00000966  00000-0  22974-3 0  9996
2    47  66.6654 107.2775 0230637 286.2128  71.3711 14.43673737351144
Epoch (UTC): 24 July 2024 04:26:28
Eccentricity: 0.0230637
inclination: 66.6654°
perigee height: 582 km
apogee height: 911 km
right ascension of ascending node: 107.2775°
argument of perigee: 286.2128°
revolutions per day: 14.43673737
mean anomaly at epoch: 71.3711°
orbit number at epoch: 35114

The dashed part of the orbit path shows where the satellite is in the earth's shadow,  

DLR